| time (UTC) | temp F | wind direction | speed knots | gust knots | rain 1hr in | rain 24hr in | rain mn in | humidity % | barometer mb |
| 20260510141525 | 58 | 302 | 0.0 | 7.8 | 0.02 | 0.15 | 0.09 | 83 | 1016.2 |
| 20260510140020 | 58 | 339 | 0.0 | 2.6 | 0.04 | 0.15 | 0.09 | 84 | 1016.3 |
| 20260510134518 | 58 | 7 | 0.0 | 5.2 | 0.05 | 0.15 | 0.09 | 84 | 1016.0 |
| 20260510133021 | 58 | 110 | 0.9 | 7.8 | 0.07 | 0.15 | 0.09 | 85 | 1014.4 |
| 20260510131519 | 58 | 167 | 0.0 | 1.7 | 0.07 | 0.13 | 0.07 | 87 | 1014.5 |
| 20260510130017 | 58 | 315 | 0.0 | 0.0 | 0.05 | 0.11 | 0.05 | 87 | 1015.2 |
| 20260510124511 | 59 | 89 | 0.0 | 0.0 | 0.04 | 0.10 | 0.04 | 85 | 1015.2 |
| 20260510123010 | 59 | 296 | 0.0 | 0.0 | 0.02 | 0.08 | 0.02 | 84 | 1015.1 |
| 20260510121508 | 60 | 296 | 0.0 | 0.0 | 0.00 | 0.06 | 0.00 | 81 | 1015.5 |
| 20260510120007 | 61 | 296 | 0.0 | 0.0 | 0.00 | 0.06 | 0.00 | 76 | 1015.2 |
| 20260510114502 | 61 | 304 | 0.0 | 0.0 | 0.00 | 0.06 | 0.00 | 74 | 1013.9 |
| 20260510113059 | 61 | 302 | 0.0 | 0.0 | 0.00 | 0.06 | 0.00 | 76 | 1013.2 |
| 20260510111606 | 60 | 294 | 0.0 | 0.0 | 0.00 | 0.06 | 0.00 | 77 | 1011.9 |
| 20260510110058 | 60 | 317 | 0.0 | 0.0 | 0.00 | 0.06 | 0.00 | 76 | 1011.4 |
| 20260510104609 | 60 | 128 | 0.0 | 0.0 | 0.00 | 0.06 | 0.00 | 76 | 1011.0 |
| 20260510103049 | 60 | 128 | 0.0 | 0.0 | 0.00 | 0.06 | 0.00 | 75 | 1010.7 |
| 20260510101549 | 59 | 130 | 0.0 | 0.0 | 0.00 | 0.06 | 0.00 | 76 | 1010.4 |
| 20260510100047 | 59 | 130 | 0.0 | 0.0 | 0.00 | 0.06 | 0.00 | 75 | 1010.7 |
| 20260510094546 | 60 | 130 | 0.0 | 0.0 | 0.00 | 0.06 | 0.00 | 75 | 1010.7 |
| 20260510093043 | 61 | 130 | 0.0 | 0.0 | 0.00 | 0.06 | 0.00 | 73 | 1010.8 |
| 20260510091541 | 61 | 130 | 0.0 | 0.0 | 0.00 | 0.06 | 0.00 | 73 | 1010.9 |
| 20260510090038 | 62 | 130 | 0.0 | 0.0 | 0.00 | 0.06 | 0.00 | 69 | 1010.9 |
| 20260510084536 | 63 | 130 | 0.0 | 0.0 | 0.00 | 0.06 | 0.00 | 68 | 1010.6 |
| 20260510083033 | 63 | 130 | 0.0 | 0.0 | 0.00 | 0.06 | 0.00 | 65 | 1010.5 |
| 20260510081529 | 64 | 130 | 0.0 | 0.0 | 0.00 | 0.06 | 0.00 | 61 | 1009.9 |
| 20260510080029 | 64 | 130 | 0.0 | 0.0 | 0.00 | 0.06 | 0.00 | 60 | 1009.5 |
| 20260510074531 | 66 | 131 | 0.0 | 0.0 | 0.00 | 0.06 | 0.00 | 58 | 1009.5 |
| 20260510073021 | 67 | 130 | 0.0 | 0.0 | 0.00 | 0.06 | 0.00 | 54 | 1009.7 |
| 20260510071517 | 68 | 130 | 0.0 | 0.0 | 0.00 | 0.06 | 0.00 | 52 | 1009.5 |
| 20260510070016 | 69 | 130 | 0.0 | 0.0 | 0.00 | 0.06 | 0.00 | 51 | 1009.3 |
| 20260510064513 | 69 | 130 | 0.0 | 0.0 | 0.00 | 0.06 | 0.00 | 48 | 1008.8 |
| 20260510063008 | 69 | 130 | 0.0 | 0.0 | 0.00 | 0.06 | 0.00 | 49 | 1008.3 |
| 20260510061507 | 71 | 130 | 0.0 | 5.2 | 0.00 | 0.06 | 0.00 | 46 | 1007.9 |
| 20260510060006 | 70 | 43 | 0.0 | 15.6 | 0.00 | 0.06 | 0.00 | 48 | 1007.8 |
| 20260510054503 | 70 | 149 | 12.2 | 21.7 | 0.00 | 0.06 | 0.00 | 48 | 1006.4 |
| 20260510053113 | 70 | 176 | 12.2 | 23.5 | 0.02 | 0.06 | 0.00 | 51 | 1005.0 |
| 20260510051645 | 69 | 154 | 22.6 | 33.9 | 0.04 | 0.06 | 0.00 | 55 | 1004.1 |
| 20260510050056 | 69 | 219 | 13.0 | 21.7 | 0.04 | 0.06 | 0.00 | 59 | 1007.6 |
| 20260510044553 | 67 | 148 | 16.5 | 21.7 | 0.05 | 0.06 | 0.06 | 68 | 1007.3 |
| 20260510043130 | 67 | 223 | 11.3 | 20.0 | 0.04 | 0.04 | 0.04 | 70 | 1010.2 |
| 20260510041553 | 61 | 220 | 10.4 | 14.8 | 0.02 | 0.02 | 0.02 | 91 | 1011.2 |
| 20260510040049 | 67 | 159 | 7.8 | 12.2 | 0.02 | 0.02 | 0.02 | 68 | 1010.0 |
| 20260510034553 | 69 | 336 | 0.0 | 0.0 | 0.01 | 0.01 | 0.01 | 58 | 1011.8 |
| 20260510033050 | 71 | 333 | 0.0 | 3.5 | 0.00 | 0.00 | 0.00 | 55 | 1012.3 |
| 20260510031610 | 72 | 313 | 3.5 | 11.3 | 0.00 | 0.00 | 0.00 | 51 | 1011.7 |
| 20260510030039 | 72 | 353 | 0.9 | 6.1 | 0.00 | 0.00 | 0.00 | 53 | 1010.4 |
| 20260510024537 | 73 | 348 | 0.0 | 4.3 | 0.00 | 0.00 | 0.00 | 49 | 1009.4 |
| 20260510023042 | 74 | 109 | 0.0 | 6.1 | 0.00 | 0.00 | 0.00 | 45 | 1008.1 |
| 20260510021530 | 73 | 123 | 0.9 | 7.0 | 0.00 | 0.00 | 0.00 | 45 | 1007.5 |
| 20260510020028 | 73 | 133 | 0.0 | 2.6 | 0.00 | 0.00 | 0.00 | 48 | 1007.2 |
| 20260510014527 | 73 | 53 | 0.0 | 0.0 | 0.00 | 0.00 | 0.00 | 47 | 1006.9 |
| 20260510013026 | 74 | 148 | 0.0 | 0.0 | 0.00 | 0.00 | 0.00 | 46 | 1006.7 |
| 20260510011526 | 75 | 117 | 0.0 | 0.0 | 0.00 | 0.00 | 0.00 | 43 | 1006.1 |
| 20260510010029 | 77 | 142 | 0.0 | 6.1 | 0.00 | 0.00 | 0.00 | 41 | 1006.0 |
| 20260510004524 | 78 | 116 | 0.0 | 7.0 | 0.00 | 0.00 | 0.00 | 40 | 1005.6 |
| 20260510003024 | 79 | 142 | 4.3 | 8.7 | 0.00 | 0.00 | 0.00 | 38 | 1005.6 |
| 20260510001523 | 80 | 141 | 4.3 | 9.6 | 0.00 | 0.00 | 0.00 | 37 | 1005.5 |
| 20260510000023 | 80 | 126 | 3.5 | 10.4 | 0.00 | 0.00 | 0.00 | 36 | 1005.5 |
| 20260509234524 | 81 | 148 | 4.3 | 10.4 | 0.00 | 0.00 | 0.00 | 36 | 1005.6 |
| 20260509233020 | 81 | 123 | 5.2 | 10.4 | 0.00 | 0.00 | 0.00 | 35 | 1005.6 |
| 20260509231520 | 82 | 126 | 5.2 | 10.4 | 0.00 | 0.00 | 0.00 | 34 | 1005.6 |
| 20260509230020 | 82 | 134 | 6.1 | 10.4 | 0.00 | 0.00 | 0.00 | 32 | 1005.5 |
| 20260509224520 | 83 | 142 | 5.2 | 12.2 | 0.00 | 0.00 | 0.00 | 33 | 1005.5 |
| 20260509223017 | 83 | 114 | 2.6 | 13.0 | 0.00 | 0.00 | 0.00 | 31 | 1005.5 |
| 20260509221517 | 83 | 110 | 3.5 | 13.9 | 0.00 | 0.00 | 0.00 | 30 | 1005.6 |
| 20260509220015 | 84 | 130 | 5.2 | 11.3 | 0.00 | 0.00 | 0.00 | 30 | 1005.6 |
| 20260509214514 | 84 | 138 | 2.6 | 9.6 | 0.00 | 0.00 | 0.00 | 29 | 1005.6 |
| 20260509213013 | 84 | 133 | 5.2 | 12.2 | 0.00 | 0.00 | 0.00 | 29 | 1005.8 |
| 20260509211517 | 84 | 102 | 0.9 | 10.4 | 0.00 | 0.00 | 0.00 | 29 | 1005.9 |
| 20260509210009 | 84 | 170 | 3.5 | 9.6 | 0.00 | 0.00 | 0.00 | 27 | 1006.2 |
| 20260509204507 | 84 | 136 | 0.0 | 7.0 | 0.00 | 0.00 | 0.00 | 30 | 1006.4 |
| 20260509203008 | 84 | 128 | 2.6 | 9.6 | 0.00 | 0.00 | 0.00 | 29 | 1006.6 |
| 20260509201504 | 84 | 92 | 2.6 | 10.4 | 0.00 | 0.00 | 0.00 | 28 | 1006.8 |
| 20260509200001 | 84 | 126 | 0.0 | 6.1 | 0.00 | 0.00 | 0.00 | 28 | 1007.1 |
| 20260509194600 | 83 | 330 | 0.0 | 7.0 | 0.00 | 0.13 | 0.00 | 25 | 1007.2 |
| 20260509193057 | 83 | 130 | 0.9 | 8.7 | 0.00 | 0.13 | 0.00 | 27 | 1007.3 |
| 20260509191555 | 83 | 138 | 5.2 | 8.7 | 0.00 | 0.13 | 0.00 | 28 | 1007.5 |
| 20260509190054 | 83 | 153 | 2.6 | 7.0 | 0.00 | 0.13 | 0.00 | 34 | 1007.7 |
| 20260509184550 | 82 | 152 | 2.6 | 9.6 | 0.00 | 0.14 | 0.00 | 30 | 1007.8 |
| 20260509183049 | 81 | 169 | 0.0 | 5.2 | 0.00 | 0.14 | 0.00 | 34 | 1008.0 |
| 20260509181604 | 81 | 111 | 1.7 | 6.1 | 0.00 | 0.14 | 0.00 | 36 | 1008.1 |
| 20260509180045 | 82 | 209 | 0.0 | 7.0 | 0.00 | 0.14 | 0.00 | 33 | 1008.3 |
| 20260509174544 | 81 | 143 | 0.0 | 4.3 | 0.00 | 0.14 | 0.00 | 35 | 1008.4 |
| 20260509173041 | 80 | 175 | 0.0 | 0.0 | 0.00 | 0.14 | 0.00 | 37 | 1008.6 |
| 20260509171539 | 80 | 237 | 0.0 | 0.0 | 0.00 | 0.14 | 0.00 | 36 | 1008.8 |
| 20260509170036 | 80 | 227 | 1.7 | 4.3 | 0.00 | 0.14 | 0.00 | 34 | 1009.0 |
| 20260509164534 | 79 | 146 | 0.0 | 5.2 | 0.00 | 0.14 | 0.00 | 38 | 1009.1 |
| 20260509163047 | 80 | 236 | 0.0 | 0.0 | 0.00 | 0.14 | 0.00 | 39 | 1009.1 |
| 20260509161528 | 78 | 258 | 0.0 | 0.0 | 0.00 | 0.14 | 0.00 | 41 | 1009.0 |
| 20260509160026 | 76 | 256 | 0.0 | 0.0 | 0.00 | 0.14 | 0.00 | 51 | 1009.1 |
| 20260509154522 | 76 | 258 | 0.0 | 0.0 | 0.00 | 0.14 | 0.00 | 55 | 1008.9 |
| 20260509153021 | 74 | 260 | 0.0 | 0.0 | 0.00 | 0.14 | 0.00 | 62 | 1008.8 |
| 20260509151516 | 73 | 259 | 0.0 | 0.0 | 0.00 | 0.14 | 0.00 | 67 | 1009.0 |
| 20260509150011 | 71 | 255 | 0.0 | 0.0 | 0.00 | 0.14 | 0.00 | 71 | 1008.9 |
| 20260509144508 | 70 | 294 | 0.0 | 0.0 | 0.00 | 0.14 | 0.00 | 75 | 1008.7 |
| 20260509143003 | 67 | 291 | 0.0 | 0.0 | 0.00 | 0.14 | 0.00 | 82 | 1008.7 |